Tracking 28790 objects as of 19-Apr-2024
HD Live streaming from Space Station
objects crossing your sky now

STARLINK-1394

Track STARLINK-1394 now!
10-day predictions
STARLINK-1394 is classified as:


NORAD ID: 45679
Int'l Code: 2020-035Y
Perigee: 553.6 km
Apogee: 555.2 km
Inclination: 53.1 °
Period: 95.6 minutes
Semi major axis: 6925 km
RCS: Unknown
Launch date: June 4, 2020
Source: United States (US)
Launch site: AIR FORCE EASTERN TEST RANGE (AFETR)
Your satellite tracking list
Your tracking list is empty




NASA's NSSDC Master Catalog

Two Line Element Set (TLE):
1 45679U 20035Y   24109.76805874 -.00000440  00000-0 -10631-4 0  9997
2 45679  53.0525 273.7891 0001157 127.9287 232.1807 15.06391859214489
Source of the keplerian elements: AFSPC